Location: Notre Dame Regional High School Observatory
(37.3056°N, 89.6097°W)
Time: 17:32:26
(UTC-05:00)

Okean-O - Visible Passes

Search period start: 06 May 2016 00:00
Search period end: 16 May 2016 00:00
Orbit: 640 x 642 km, 98.1° (Epoch: 05 May)

Date Brightness Start Highest point End Pass type
(mag) Time Alt. Az. Time Alt. Az. Time Alt. Az.
06 May 4.2 04:31:53 10° NNE 04:35:56 34° E 04:39:58 10° SSE visible
07 May 3.1 04:55:16 10° NNE 04:59:41 64° ESE 05:04:04 10° S visible
08 May 2.7 05:18:56 10° N 05:23:21 68° WNW 05:27:44 10° SSW visible
09 May 5.2 04:07:19 10° NE 04:10:21 18° E 04:13:22 10° SE visible
10 May 4.3 04:30:11 10° NNE 04:34:11 32° E 04:38:09 10° SSE visible
11 May 3.2 04:53:31 10° NNE 04:57:55 61° E 05:02:18 10° S visible
12 May 2.6 05:17:10 10° N 05:21:36 72° WNW 05:26:00 10° SSW visible
13 May 5.3 04:05:40 10° NE 04:08:34 17° E 04:11:28 10° SE visible
14 May 4.4 04:28:28 10° NE 04:32:24 30° E 04:36:19 10° SSE visible
15 May 3.3 04:51:46 10° NNE 04:56:10 57° E 05:00:30 10° S visible
